Location: Newark
(41.0400°S, 62.7845°W)
Time: 02:05:29
(UTC+00:00)

Vanguard 2 Rocket - Pass Details

Date: 07 December 2021
Orbit: 554 x 3325 km, 32.9° (Epoch: 21 January)

Event Time Altitude Azimuth Distance (km) Brightness Sun altitude
Rises 07:12:10 0° 317° (NW) 7,127 - -12.6°
Reaches altitude 10° 07:17:12 10° 323° (NW) 6,234 - -12.0°
Exits shadow 07:18:17 12° 324° (NW) 6,046 10.4 -11.8°
Maximum altitude 07:35:31 44° 26° (NNE) 3,884 10.0 -9.4°
Drops below altitude 10° 07:50:04 10° 90° (E) 5,054 11.5 -7.3°
Sets 07:53:36 0° 96° (E) 5,734 12.1 -6.8°
